ASA241 PANC-PAFA

Flight info

Callsign ASA241
Flight time 0h 41m
Altitude 30000
Route CAWIN LIBER5
Aircraft B737/M-SDE2E3FGHIRWXY/LB1

Departure

Time 2026-05-05 19:24
Airport Ted Stevens Anchorage International Airport (PANC)

Arrival

Time 2026-05-05 20:05
Airport Fairbanks International Airport (PAFA)
Time Latitude Longitude Altitude Speed Heading
2026-05-05 19:02 61.17609 -149.98479 109 ft 0 kts 118°
2026-05-05 19:18 61.17612 -149.98492 109 ft 3 kts 117°
2026-05-05 19:18 61.17617 -149.98541 108 ft 4 kts 77°
2026-05-05 19:18 61.17610 -149.98593 105 ft 3 kts 76°
2026-05-05 19:18 61.17606 -149.98639 104 ft 4 kts 90°
2026-05-05 19:19 61.17611 -149.98688 103 ft 4 kts 137°
2026-05-05 19:19 61.17632 -149.98710 102 ft 4 kts 160°
2026-05-05 19:19 61.17639 -149.98715 104 ft 1 kts 160°
2026-05-05 19:21 61.17626 -149.98706 103 ft 9 kts 160°
2026-05-05 19:21 61.17530 -149.98634 105 ft 17 kts 160°
2026-05-05 19:21 61.17422 -149.98564 107 ft 16 kts 184°
2026-05-05 19:22 61.17329 -149.98680 108 ft 15 kts 214°
2026-05-05 19:22 61.17237 -149.98806 111 ft 17 kts 217°
2026-05-05 19:22 61.17159 -149.98986 112 ft 17 kts 230°
2026-05-05 19:22 61.17126 -149.99201 117 ft 16 kts 269°
2026-05-05 19:23 61.17125 -149.99431 122 ft 16 kts 270°
2026-05-05 19:23 61.17125 -149.99654 126 ft 15 kts 269°
2026-05-05 19:23 61.17136 -149.99861 129 ft 14 kts 314°
2026-05-05 19:23 61.17277 -149.99943 127 ft 44 kts 345°
2026-05-05 19:24 61.17835 -150.00256 121 ft 120 kts 345°
2026-05-05 19:24 61.18824 -150.00796 243 ft 167 kts 346°
2026-05-05 19:24 61.20009 -150.01437 801 ft 187 kts 343°
2026-05-05 19:24 61.21156 -150.02915 1386 ft 202 kts 317°
2026-05-05 19:25 61.22187 -150.04975 2104 ft 211 kts 316°
2026-05-05 19:25 61.23290 -150.07271 2548 ft 242 kts 314°
2026-05-05 19:25 61.24612 -150.09639 3210 ft 258 kts 334°
2026-05-05 19:25 61.26368 -150.10199 4192 ft 260 kts 10°
2026-05-05 19:26 61.28142 -150.09344 5209 ft 265 kts 15°
2026-05-05 19:26 61.29943 -150.08349 6170 ft 271 kts 15°
2026-05-05 19:26 61.31781 -150.07318 7092 ft 277 kts 15°
2026-05-05 19:26 61.33661 -150.06276 8002 ft 282 kts 15°
2026-05-05 19:27 61.35577 -150.05232 8921 ft 287 kts 15°
2026-05-05 19:27 61.37519 -150.04183 9836 ft 291 kts 15°
2026-05-05 19:27 61.39501 -150.03125 10559 ft 303 kts 15°
2026-05-05 19:27 61.41640 -150.01992 10793 ft 330 kts 14°
2026-05-05 19:28 61.43893 -150.00805 11334 ft 344 kts 14°
2026-05-05 19:28 61.46233 -149.99578 12133 ft 349 kts 14°
2026-05-05 19:28 61.48596 -149.98315 12973 ft 352 kts 14°
2026-05-05 19:28 61.50983 -149.97066 13800 ft 356 kts 14°
2026-05-05 19:29 61.53407 -149.95789 14595 ft 362 kts 14°
2026-05-05 19:29 61.55875 -149.94508 15367 ft 369 kts 14°
2026-05-05 19:29 61.58386 -149.93201 16126 ft 375 kts 14°
2026-05-05 19:29 61.60933 -149.91871 16904 ft 380 kts 14°
2026-05-05 19:30 61.63514 -149.90518 17673 ft 384 kts 14°
2026-05-05 19:30 61.66123 -149.89146 18436 ft 389 kts 14°
2026-05-05 19:30 61.68766 -149.87752 19155 ft 394 kts 14°
2026-05-05 19:30 61.71430 -149.86344 19954 ft 395 kts 14°
2026-05-05 19:31 61.74102 -149.84905 20736 ft 397 kts 15°
2026-05-05 19:31 61.76783 -149.83451 21484 ft 399 kts 15°
2026-05-05 19:31 61.79485 -149.82035 22180 ft 401 kts 15°
2026-05-05 19:31 61.82198 -149.80611 22850 ft 404 kts 15°
2026-05-05 19:32 61.84932 -149.79177 23519 ft 406 kts 14°
2026-05-05 19:32 61.87694 -149.77848 24153 ft 408 kts 15°
2026-05-05 19:32 61.90453 -149.76323 24752 ft 411 kts 16°
2026-05-05 19:32 61.93239 -149.74797 25220 ft 417 kts 15°
2026-05-05 19:33 61.96066 -149.73207 25621 ft 423 kts 17°
2026-05-05 19:33 61.98923 -149.71572 26076 ft 428 kts 15°
2026-05-05 19:33 62.01830 -149.70029 26547 ft 433 kts 14°
2026-05-05 19:33 62.04771 -149.68515 26984 ft 437 kts 14°
2026-05-05 19:34 62.07734 -149.66903 27397 ft 442 kts 15°
2026-05-05 19:34 62.10729 -149.65246 27787 ft 447 kts 15°
2026-05-05 19:34 62.13749 -149.63601 28283 ft 448 kts 15°
2026-05-05 19:35 62.19785 -149.60278 29417 ft 447 kts 15°
2026-05-05 19:35 62.22813 -149.58617 29752 ft 452 kts 14°
2026-05-05 19:35 62.25864 -149.56967 29749 ft 453 kts 14°
2026-05-05 19:36 62.31951 -149.53647 29772 ft 451 kts 14°
2026-05-05 19:36 62.38006 -149.50304 29770 ft 453 kts 15°
2026-05-05 19:37 62.44122 -149.46893 29753 ft 454 kts 15°
2026-05-05 19:37 62.50238 -149.43478 29758 ft 454 kts 15°
2026-05-05 19:38 62.56348 -149.40059 29749 ft 453 kts 15°
2026-05-05 19:38 62.62443 -149.36637 29744 ft 452 kts 15°
2026-05-05 19:39 62.68535 -149.33201 29747 ft 452 kts 15°
2026-05-05 19:39 62.74622 -149.29753 29733 ft 452 kts 15°
2026-05-05 19:40 62.80707 -149.26292 29737 ft 452 kts 15°
2026-05-05 19:40 62.86791 -149.22816 29732 ft 452 kts 15°
2026-05-05 19:41 62.92871 -149.19328 29723 ft 452 kts 15°
2026-05-05 19:41 62.98957 -149.15821 29721 ft 452 kts 15°
2026-05-05 19:42 63.05043 -149.12300 29705 ft 452 kts 15°
2026-05-05 19:42 63.11081 -149.08790 29706 ft 451 kts 15°
2026-05-05 19:43 63.17159 -149.05242 29704 ft 452 kts 15°
2026-05-05 19:43 63.23241 -149.01677 29691 ft 452 kts 15°
2026-05-05 19:44 63.29316 -148.98095 29689 ft 452 kts 15°
2026-05-05 19:44 63.35385 -148.94412 29667 ft 452 kts 16°
2026-05-05 19:45 63.41443 -148.90687 29679 ft 451 kts 16°
2026-05-05 19:45 63.47497 -148.86957 29491 ft 450 kts 16°
2026-05-05 19:45 63.50506 -148.85100 29033 ft 446 kts 16°
2026-05-05 19:46 63.53487 -148.83258 28501 ft 442 kts 16°
2026-05-05 19:46 63.56438 -148.81432 27964 ft 438 kts 16°
2026-05-05 19:46 63.59341 -148.79631 27433 ft 433 kts 16°
2026-05-05 19:46 63.62231 -148.77834 26901 ft 429 kts 16°
2026-05-05 19:47 63.65092 -148.76051 26361 ft 425 kts 16°
2026-05-05 19:47 63.67920 -148.74285 25816 ft 418 kts 16°
2026-05-05 19:47 63.70710 -148.72539 25297 ft 414 kts 16°
2026-05-05 19:47 63.73476 -148.70805 24771 ft 411 kts 16°
2026-05-05 19:48 63.76218 -148.69082 24239 ft 407 kts 16°
2026-05-05 19:48 63.78936 -148.67370 23717 ft 404 kts 16°
2026-05-05 19:48 63.81625 -148.65674 23194 ft 400 kts 16°
2026-05-05 19:48 63.84297 -148.63984 22666 ft 397 kts 16°
2026-05-05 19:49 63.86949 -148.62305 22149 ft 394 kts 16°
2026-05-05 19:49 63.88685 -148.61204 21803 ft 392 kts 16°
2026-05-05 19:49 63.92177 -148.58984 21114 ft 387 kts 16°
2026-05-05 19:49 63.94758 -148.57340 20603 ft 384 kts 16°
2026-05-05 19:50 63.97322 -148.55703 20092 ft 380 kts 16°
2026-05-05 19:50 63.99857 -148.54083 19585 ft 377 kts 16°
2026-05-05 19:50 64.02373 -148.52471 19066 ft 374 kts 16°
2026-05-05 19:50 64.04867 -148.50871 18577 ft 371 kts 17°
2026-05-05 19:51 64.07320 -148.49291 18297 ft 361 kts 17°
2026-05-05 19:51 64.09712 -148.47746 18038 ft 354 kts 17°
2026-05-05 19:51 64.12069 -148.46220 17694 ft 351 kts 17°
2026-05-05 19:51 64.14412 -148.44701 17232 ft 348 kts 17°
2026-05-05 19:52 64.16738 -148.43190 16760 ft 347 kts 17°
2026-05-05 19:52 64.19053 -148.41685 16274 ft 345 kts 17°
2026-05-05 19:52 64.21356 -148.40184 15789 ft 343 kts 17°
2026-05-05 19:52 64.23647 -148.38688 15302 ft 341 kts 17°
2026-05-05 19:53 64.25927 -148.37196 14815 ft 340 kts 17°
2026-05-05 19:53 64.28197 -148.35709 14320 ft 338 kts 17°
2026-05-05 19:53 64.30456 -148.34225 13822 ft 337 kts 17°
2026-05-05 19:53 64.32675 -148.32766 13342 ft 335 kts 17°
2026-05-05 19:54 64.34933 -148.31194 12837 ft 334 kts 22°
2026-05-05 19:54 64.36916 -148.28605 12335 ft 332 kts 35°
2026-05-05 19:54 64.38849 -148.25603 11807 ft 333 kts 36°
2026-05-05 19:54 64.40762 -148.22595 11312 ft 332 kts 35°
2026-05-05 19:55 64.42670 -148.19603 10822 ft 330 kts 34°
2026-05-05 19:55 64.44545 -148.16684 10385 ft 327 kts 34°
2026-05-05 19:55 64.46378 -148.13760 10248 ft 314 kts 34°
2026-05-05 19:55 64.48179 -148.10955 10089 ft 302 kts 34°
2026-05-05 19:56 64.49875 -148.08340 9877 ft 294 kts 33°
2026-05-05 19:56 64.51573 -148.05718 9506 ft 292 kts 33°
2026-05-05 19:56 64.53268 -148.03102 9163 ft 293 kts 33°
2026-05-05 19:56 64.54957 -148.00495 8789 ft 290 kts 33°
2026-05-05 19:57 64.56622 -147.97905 8430 ft 285 kts 34°
2026-05-05 19:57 64.57724 -147.96133 8192 ft 284 kts 33°
2026-05-05 19:57 64.59913 -147.92775 7725 ft 286 kts 33°
2026-05-05 19:57 64.61569 -147.90197 7360 ft 285 kts 33°
2026-05-05 19:58 64.63212 -147.87624 6998 ft 284 kts 33°
2026-05-05 19:58 64.64837 -147.85073 6627 ft 279 kts 33°
2026-05-05 19:58 64.66427 -147.82579 6272 ft 272 kts 33°
2026-05-05 19:58 64.67995 -147.80113 5933 ft 271 kts 33°
2026-05-05 19:59 64.69553 -147.77662 5596 ft 270 kts 33°
2026-05-05 19:59 64.71097 -147.75227 5368 ft 262 kts 33°
2026-05-05 19:59 64.72542 -147.72948 5242 ft 240 kts 33°
2026-05-05 19:59 64.73868 -147.70853 5113 ft 220 kts 33°
2026-05-05 20:00 64.75077 -147.68941 4997 ft 199 kts 33°
2026-05-05 20:00 64.76194 -147.67198 4971 ft 189 kts 31°
2026-05-05 20:00 64.77299 -147.65608 4751 ft 185 kts 30°
2026-05-05 20:00 64.78403 -147.64042 4392 ft 185 kts 30°
2026-05-05 20:01 64.79451 -147.62562 4211 ft 170 kts 30°
2026-05-05 20:01 64.80526 -147.61318 3850 ft 168 kts 16°
2026-05-05 20:01 64.81635 -147.60947 3547 ft 158 kts 355°
2026-05-05 20:01 64.82674 -147.61555 3221 ft 149 kts 332°
2026-05-05 20:02 64.83245 -147.62379 3038 ft 144 kts 322°
2026-05-05 20:02 64.84219 -147.64556 2579 ft 148 kts 307°
2026-05-05 20:02 64.84605 -147.65842 2479 ft 146 kts 303°
2026-05-05 20:02 64.85100 -147.67940 2287 ft 145 kts 295°
2026-05-05 20:03 64.85460 -147.70152 2059 ft 146 kts 287°
2026-05-05 20:03 64.85718 -147.72436 1888 ft 143 kts 281°
2026-05-05 20:03 64.85813 -147.74779 1612 ft 144 kts 269°
2026-05-05 20:03 64.85609 -147.77048 1364 ft 143 kts 248°
2026-05-05 20:04 64.85119 -147.79100 1116 ft 145 kts 233°
2026-05-05 20:04 64.84472 -147.80802 930 ft 135 kts 222°
2026-05-05 20:04 64.83773 -147.82177 740 ft 128 kts 217°
2026-05-05 20:04 64.83076 -147.83439 588 ft 125 kts 217°
2026-05-05 20:05 64.82375 -147.84718 447 ft 127 kts 216°
2026-05-05 20:05 64.81752 -147.85859 428 ft 97 kts 218°
2026-05-05 20:05 64.81319 -147.86652 428 ft 59 kts 218°
2026-05-05 20:05 64.81174 -147.86925 441 ft 17 kts 233°
2026-05-05 20:06 64.81220 -147.87137 442 ft 16 kts 345°
2026-05-05 20:06 64.81310 -147.87000 442 ft 16 kts 44°
2026-05-05 20:06 64.81393 -147.86845 434 ft 15 kts 35°
2026-05-05 20:06 64.81482 -147.86689 442 ft 16 kts 38°
2026-05-05 20:07 64.81568 -147.86531 435 ft 14 kts 24°
2026-05-05 20:07 64.81643 -147.86558 438 ft 9 kts 37°
2026-05-05 20:07 64.81699 -147.86540 442 ft 9 kts 325°
2026-05-05 20:07 64.81731 -147.86603 442 ft 3 kts 318°
2026-05-05 20:08 64.81734 -147.86609 431 ft 0 kts 318°